Hourly Data Report for October 23, 2016

All times are specified in Local Standard Time (LST). Add 1 hour to adjust for Daylight Saving Time where and when it is observed.

HALL BEACH A
NUNAVUT

68°46'33.000" N
81°14'33.000" W
9.10 m
2402354
71293
YUX

Download Data

Hourly Data (October 2016)
Hourly Data Report for October 23, 2016
Temp Definition
°C
Dew Point Temp Definition
°C
Rel Hum Definition
%
Wind Dir Definition
10's deg

Wind Spd Definition
km/h
Visibility Definition
km
Stn Press Definition
kPa
Hmdx Definition


Wind Chill Definition


Weather Definition


TIME
00:00 Legend Double Dagger -18.2 -19.7 88 31 21 2.4 103.36   -28 Fog
01:00 Legend Double Dagger -15.5 -17.0 89 30 18 0.4 103.38   -24 Freezing Fog
02:00 Legend Double Dagger -17.0 -19.0 85 31 17 0.4 103.41   -26 Heavy Snow
03:00 Legend Double Dagger -18.3 -20.2 85 31 18 16.1 103.46   -28 LegendNANA
04:00 Legend Double Dagger -17.6 -19.4 86 31 15 0.6 103.50   -26 Moderate Snow
05:00 Legend Double Dagger -15.0 -16.7 87 30 15 1.0 103.50   -23 Snow
06:00 Legend Double Dagger -13.9 -15.5 88 30 15 0.6 103.53   -22 Moderate Snow
07:00 Legend Double Dagger -17.5 -19.5 85 31 18 16.1 103.52   -27 LegendNANA
08:00 Legend Double Dagger -18.3 -20.4 84 30 11 16.1 103.54   -26 LegendNANA
09:00 Legend Double Dagger -17.8 -19.7 85 30 18 16.1 103.57   -27 LegendNANA
10:00 Legend Double Dagger -17.0 -19.0 85 31 17 16.1 103.54   -26 LegendNANA
11:00 Legend Double Dagger -16.3 -18.1 86 30 18 16.1 103.54   -25 LegendNANA
12:00 Legend Double Dagger -14.0 -15.6 88 30 21 16.1 103.59   -23 LegendNANA
13:00 Legend Double Dagger -11.3 -12.5 91 31 18 16.1 103.60   -19 LegendNANA
14:00 Legend Double Dagger -11.4 -12.7 90 29 17 16.1 103.62   -19 LegendNANA
15:00 Legend Double Dagger -10.7 -11.9 91 30 13 16.1 103.64   -17 LegendNANA
16:00 Legend Double Dagger -10.5 -11.6 92 32 17 16.1 103.64   -18 Snow
17:00 Legend Double Dagger -10.4 -11.5 92 33 13 16.1 103.64   -17 Snow
18:00 Legend Double Dagger -11.0 -12.2 91 31 17 16.1 103.62   -18 Snow
19:00 Legend Double Dagger -12.6 -13.9 90 31 21 16.1 103.62   -21 Snow
20:00 Legend Double Dagger -13.1 -14.6 89 30 18 16.1 103.59   -21 LegendNANA
21:00 Legend Double Dagger -13.8 -15.2 89 28 18 16.1 103.58   -22 LegendNANA
22:00 Legend Double Dagger -12.6 -13.9 90 29 15 16.1 103.54   -20 LegendNANA
23:00 Legend Double Dagger -11.3 -12.5 91 32 21 16.1 103.48   -20 Snow

Notes on Data Quality.

Legend

  • E = Estimated
  • M = Missing
  • NA = Not Available
  • ‡ = Partner data that is not subject to review by the National Climate Archives
Date modified: